| time (UTC) | temp F | wind direction | speed MPH | gust MPH | rain 1hr in | rain 24hr in | rain mn in | humidity % | barometer mb |
| 20260505230235 | 33 | 344 | 3.0 | 6.0 | 0.03 | 0.49 | 0.39 | 92 | 1002.4 |
| 20260505225225 | 33 | 74 | 1.0 | 3.0 | 0.03 | 0.48 | 0.38 | 92 | 1001.8 |
| 20260505224228 | 34 | 74 | 1.0 | 2.0 | 0.03 | 0.48 | 0.38 | 93 | 1001.6 |
| 20260505223234 | 34 | 74 | 0.0 | 1.0 | 0.04 | 0.48 | 0.38 | 93 | 1001.6 |
| 20260505222236 | 34 | 74 | 0.0 | 1.0 | 0.04 | 0.47 | 0.37 | 93 | 1001.4 |
| 20260505221238 | 34 | 74 | 0.0 | 1.0 | 0.04 | 0.46 | 0.36 | 92 | 1001.2 |
| 20260505220222 | 34 | 74 | 0.0 | 0.0 | 0.05 | 0.46 | 0.36 | 92 | 1001.2 |
| 20260505215228 | 34 | 74 | 0.0 | 2.0 | 0.05 | 0.45 | 0.35 | 92 | 1001.5 |
| 20260505214229 | 34 | 74 | 0.0 | 3.0 | 0.07 | 0.45 | 0.35 | 92 | 1001.8 |
| 20260505213230 | 34 | 74 | 1.0 | 3.0 | 0.08 | 0.44 | 0.34 | 92 | 1001.8 |
| 20260505212300 | 34 | 74 | 1.0 | 3.0 | 0.08 | 0.43 | 0.33 | 92 | 1001.8 |
| 20260505211224 | 35 | 74 | 2.0 | 4.0 | 0.08 | 0.42 | 0.32 | 92 | 1001.9 |
| 20260505210229 | 36 | 73 | 2.0 | 4.0 | 0.07 | 0.41 | 0.31 | 92 | 1001.9 |
| 20260505205230 | 37 | 73 | 1.0 | 3.0 | 0.06 | 0.40 | 0.30 | 92 | 1002.4 |
| 20260505204237 | 37 | 73 | 1.0 | 4.0 | 0.05 | 0.38 | 0.28 | 92 | 1002.4 |
| 20260505203222 | 38 | 73 | 1.0 | 3.0 | 0.04 | 0.36 | 0.26 | 92 | 1002.4 |
| 20260505202243 | 38 | 73 | 2.0 | 4.0 | 0.03 | 0.34 | 0.24 | 93 | 1002.5 |
| 20260505201224 | 39 | 73 | 2.0 | 4.0 | 0.04 | 0.34 | 0.24 | 93 | 1002.5 |
| 20260505200232 | 38 | 73 | 1.0 | 5.0 | 0.05 | 0.34 | 0.24 | 93 | 1002.5 |
| 20260505195231 | 38 | 71 | 1.0 | 5.0 | 0.06 | 0.34 | 0.24 | 93 | 1002.6 |
| 20260505194235 | 37 | 72 | 1.0 | 7.0 | 0.06 | 0.33 | 0.23 | 93 | 1002.8 |
| 20260505193240 | 37 | 69 | 2.0 | 5.0 | 0.06 | 0.32 | 0.22 | 93 | 1002.8 |
| 20260505192236 | 37 | 69 | 2.0 | 7.0 | 0.05 | 0.31 | 0.21 | 93 | 1002.8 |
| 20260505191300 | 37 | 69 | 2.0 | 7.0 | 0.04 | 0.30 | 0.20 | 93 | 1003.1 |
| 20260505190227 | 37 | 78 | 3.0 | 7.0 | 0.03 | 0.29 | 0.19 | 93 | 1003.1 |
| 20260505185226 | 37 | 78 | 3.0 | 8.0 | 0.03 | 0.28 | 0.18 | 93 | 1003.2 |
| 20260505184226 | 37 | 38 | 2.0 | 6.0 | 0.02 | 0.27 | 0.17 | 93 | 1003.2 |
| 20260505183252 | 37 | 40 | 3.0 | 8.0 | 0.01 | 0.26 | 0.16 | 93 | 1003.2 |
| 20260505182232 | 37 | 45 | 3.0 | 6.0 | 0.01 | 0.26 | 0.16 | 93 | 1003.3 |
| 20260505181237 | 38 | 38 | 4.0 | 7.0 | 0.01 | 0.26 | 0.16 | 93 | 1003.7 |
| 20260505180223 | 38 | 62 | 4.0 | 10.0 | 0.01 | 0.26 | 0.16 | 93 | 1003.7 |
| 20260505175231 | 38 | 80 | 4.0 | 8.0 | 0.00 | 0.25 | 0.15 | 93 | 1003.7 |
| 20260505174252 | 38 | 78 | 2.0 | 8.0 | 0.00 | 0.25 | 0.15 | 94 | 1003.7 |
| 20260505173236 | 38 | 76 | 4.0 | 8.0 | 0.01 | 0.25 | 0.15 | 94 | 1003.7 |
| 20260505172225 | 38 | 84 | 6.0 | 8.0 | 0.01 | 0.25 | 0.15 | 94 | 1003.7 |
| 20260505171223 | 38 | 82 | 4.0 | 7.0 | 0.02 | 0.25 | 0.15 | 94 | 1003.8 |
| 20260505170233 | 37 | 65 | 4.0 | 7.0 | 0.02 | 0.25 | 0.15 | 94 | 1003.8 |
| 20260505165240 | 36 | 316 | 2.0 | 5.0 | 0.03 | 0.25 | 0.15 | 94 | 1004.3 |
| 20260505164239 | 36 | 317 | 4.0 | 6.0 | 0.03 | 0.25 | 0.15 | 94 | 1004.3 |
| 20260505163227 | 36 | 315 | 4.0 | 6.0 | 0.02 | 0.24 | 0.14 | 93 | 1004.3 |
| 20260505162233 | 35 | 12 | 3.0 | 4.0 | 0.03 | 0.24 | 0.14 | 93 | 1004.3 |
| 20260505161240 | 35 | 12 | 1.0 | 3.0 | 0.02 | 0.23 | 0.13 | 93 | 1004.3 |
| 20260505160224 | 36 | 12 | 2.0 | 7.0 | 0.02 | 0.23 | 0.13 | 93 | 1004.3 |
| 20260505153233 | 36 | 44 | 3.0 | 6.0 | 0.02 | 0.22 | 0.12 | 94 | 1004.3 |
| 20260505152240 | 36 | 360 | 3.0 | 6.0 | 0.02 | 0.21 | 0.11 | 94 | 1004.3 |
| 20260505151247 | 36 | 302 | 5.0 | 9.0 | 0.02 | 0.21 | 0.11 | 94 | 1004.4 |
| 20260505150229 | 35 | 329 | 4.0 | 9.0 | 0.03 | 0.21 | 0.11 | 93 | 1004.4 |
| 20260505140228 | 35 | 344 | 4.0 | 8.0 | 0.01 | 0.18 | 0.08 | 93 | 1004.6 |
| 20260505130225 | 36 | 18 | 10.0 | 16.0 | 0.02 | 0.17 | 0.07 | 93 | 1003.7 |
| 20260505124236 | 36 | 350 | 7.0 | 17.0 | 0.03 | 0.17 | 0.07 | 93 | 1002.8 |
| 20260505123227 | 37 | 278 | 8.0 | 17.0 | 0.03 | 0.16 | 0.06 | 93 | 1002.8 |
| 20260505122230 | 37 | 309 | 9.0 | 18.0 | 0.04 | 0.16 | 0.06 | 93 | 1002.7 |
| 20260505121251 | 38 | 321 | 9.0 | 18.0 | 0.04 | 0.15 | 0.05 | 93 | 1002.5 |
| 20260505120234 | 38 | 318 | 10.0 | 15.0 | 0.04 | 0.15 | 0.05 | 93 | 1002.5 |
| 20260505115237 | 38 | 329 | 7.0 | 15.0 | 0.05 | 0.15 | 0.05 | 92 | 1002.5 |
| 20260505114235 | 38 | 300 | 8.0 | 17.0 | 0.04 | 0.14 | 0.04 | 92 | 1002.4 |
| 20260505113239 | 39 | 338 | 8.0 | 18.0 | 0.03 | 0.13 | 0.03 | 92 | 1002.4 |
| 20260505112224 | 39 | 323 | 10.0 | 19.0 | 0.02 | 0.12 | 0.02 | 92 | 1002.4 |
| 20260505111232 | 40 | 339 | 8.0 | 14.0 | 0.01 | 0.11 | 0.01 | 92 | 1001.9 |
| 20260505110237 | 41 | 320 | 6.0 | 15.0 | 0.01 | 0.11 | 0.01 | 92 | 1001.9 |
| 20260505101234 | 42 | 355 | 9.0 | 18.0 | 0.00 | 0.10 | 0.00 | 91 | 1001.1 |
| 20260505100231 | 43 | 355 | 8.0 | 16.0 | 0.00 | 0.10 | 0.00 | 91 | 1001.1 |
| 20260505095234 | 45 | 355 | 11.0 | 18.0 | 0.00 | 0.10 | 0.00 | 89 | 1001.0 |
| 20260505094242 | 46 | 5 | 3.0 | 8.0 | 0.00 | 0.10 | 0.00 | 92 | 1001.1 |
| 20260505093227 | 46 | 355 | 3.0 | 6.0 | 0.00 | 0.10 | 0.00 | 91 | 1001.1 |
| 20260505092233 | 45 | 347 | 3.0 | 7.0 | 0.00 | 0.10 | 0.00 | 91 | 1001.2 |
| 20260505091234 | 45 | 178 | 3.0 | 4.0 | 0.00 | 0.10 | 0.00 | 91 | 1000.9 |
| 20260505090236 | 45 | 177 | 1.0 | 3.0 | 0.00 | 0.10 | 0.00 | 91 | 1000.9 |
| 20260505085240 | 45 | 177 | 2.0 | 3.0 | 0.00 | 0.10 | 0.00 | 90 | 1000.9 |
| 20260505084228 | 45 | 177 | 2.0 | 4.0 | 0.00 | 0.10 | 0.00 | 91 | 1000.6 |
| 20260505083231 | 46 | 177 | 2.0 | 3.0 | 0.00 | 0.10 | 0.00 | 90 | 1000.6 |
| 20260505082251 | 46 | 177 | 0.0 | 3.0 | 0.00 | 0.10 | 0.00 | 90 | 1001.2 |
| 20260505081237 | 46 | 177 | 1.0 | 4.0 | 0.00 | 0.10 | 0.00 | 90 | 1001.2 |
| 20260505080237 | 46 | 178 | 1.0 | 4.0 | 0.00 | 0.10 | 0.00 | 90 | 1001.2 |
| 20260505075235 | 46 | 180 | 1.0 | 4.0 | 0.00 | 0.10 | 0.00 | 90 | 1001.3 |
| 20260505074243 | 46 | 196 | 2.0 | 3.0 | 0.00 | 0.10 | 0.00 | 90 | 1001.8 |
| 20260505073227 | 46 | 196 | 1.0 | 4.0 | 0.00 | 0.10 | 0.00 | 90 | 1001.8 |
| 20260505072233 | 46 | 202 | 1.0 | 4.0 | 0.00 | 0.10 | 0.00 | 91 | 1001.8 |
| 20260505071242 | 46 | 202 | 3.0 | 5.0 | 0.00 | 0.10 | 0.00 | 91 | 1001.9 |
| 20260505070248 | 46 | 306 | 2.0 | 4.0 | 0.00 | 0.10 | 0.00 | 91 | 1001.9 |
| 20260505065227 | 46 | 306 | 1.0 | 4.0 | 0.00 | 0.10 | 0.00 | 91 | 1002.0 |
| 20260505064234 | 46 | 307 | 0.0 | 1.0 | 0.00 | 0.10 | 0.00 | 91 | 1002.1 |
| 20260505063242 | 46 | 307 | 0.0 | 3.0 | 0.00 | 0.10 | 0.00 | 91 | 1002.1 |
| 20260505062236 | 46 | 308 | 3.0 | 4.0 | 0.00 | 0.10 | 0.00 | 91 | 1002.1 |
| 20260505061232 | 46 | 315 | 2.0 | 4.0 | 0.01 | 0.10 | 0.00 | 91 | 1002.4 |
| 20260505060254 | 45 | 317 | 0.0 | 0.0 | 0.01 | 0.10 | 0.00 | 90 | 1002.4 |
| 20260505055241 | 45 | 317 | 0.0 | 2.0 | 0.02 | 0.10 | 0.10 | 90 | 1002.4 |
| 20260505054256 | 46 | 317 | 0.0 | 1.0 | 0.02 | 0.10 | 0.10 | 90 | 1001.9 |
| 20260505053239 | 46 | 317 | 1.0 | 2.0 | 0.03 | 0.10 | 0.10 | 90 | 1001.9 |
| 20260505052225 | 46 | 317 | 0.0 | 2.0 | 0.03 | 0.10 | 0.10 | 90 | 1002.3 |
| 20260505051244 | 46 | 317 | 0.0 | 0.0 | 0.02 | 0.09 | 0.09 | 90 | 1002.4 |
| 20260505050230 | 46 | 317 | 0.0 | 2.0 | 0.03 | 0.09 | 0.09 | 90 | 1002.4 |
| 20260505041230 | 47 | 298 | 7.0 | 11.0 | 0.06 | 0.07 | 0.07 | 87 | 1002.6 |
| 20260505040241 | 47 | 312 | 4.0 | 11.0 | 0.05 | 0.06 | 0.06 | 85 | 1002.6 |
| 20260505035242 | 48 | 321 | 7.0 | 15.0 | 0.04 | 0.05 | 0.05 | 84 | 1002.5 |
| 20260505034226 | 48 | 301 | 4.0 | 10.0 | 0.03 | 0.04 | 0.04 | 82 | 1002.4 |
| 20260505033225 | 49 | 214 | 6.0 | 12.0 | 0.02 | 0.03 | 0.03 | 79 | 1002.4 |
| 20260505032230 | 51 | 240 | 8.0 | 13.0 | 0.01 | 0.02 | 0.02 | 71 | 1001.9 |
| 20260505031240 | 51 | 346 | 2.0 | 4.0 | 0.00 | 0.01 | 0.01 | 65 | 1001.6 |
| 20260505030240 | 51 | 5 | 0.0 | 2.0 | 0.00 | 0.01 | 0.01 | 65 | 1001.6 |
| 20260505025228 | 51 | 5 | 1.0 | 5.0 | 0.00 | 0.01 | 0.01 | 63 | 1001.3 |
| 20260505024228 | 51 | 336 | 0.0 | 0.0 | 0.00 | 0.01 | 0.01 | 62 | 1001.2 |
| 20260505023235 | 51 | 336 | 0.0 | 0.0 | 0.00 | 0.01 | 0.01 | 61 | 1001.2 |
| 20260505022236 | 51 | 336 | 0.0 | 0.0 | 0.00 | 0.01 | 0.01 | 60 | 1000.8 |
| 20260505021236 | 52 | 336 | 0.0 | 1.0 | 0.00 | 0.01 | 0.01 | 58 | 1001.0 |
| 20260505020227 | 53 | 336 | 0.0 | 2.0 | 0.00 | 0.01 | 0.01 | 58 | 1001.0 |
| 20260505015244 | 53 | 336 | 1.0 | 3.0 | 0.00 | 0.01 | 0.01 | 58 | 1001.0 |
| 20260505014229 | 53 | 336 | 1.0 | 4.0 | 0.01 | 0.01 | 0.01 | 58 | 1000.6 |
| 20260505013237 | 53 | 336 | 2.0 | 6.0 | 0.01 | 0.01 | 0.01 | 58 | 1000.6 |
| 20260505012238 | 53 | 321 | 1.0 | 7.0 | 0.01 | 0.01 | 0.01 | 58 | 1000.6 |
| 20260505011240 | 54 | 5 | 1.0 | 8.0 | 0.01 | 0.01 | 0.01 | 58 | 1000.6 |
| 20260505010242 | 54 | 305 | 8.0 | 13.0 | 0.01 | 0.01 | 0.01 | 56 | 1000.6 |
| 20260505005244 | 55 | 293 | 11.0 | 21.0 | 0.01 | 0.01 | 0.01 | 52 | 1000.6 |
| 20260505004307 | 57 | 282 | 8.0 | 19.0 | 0.00 | 0.00 | 0.00 | 49 | 1000.3 |
| 20260505003229 | 58 | 303 | 6.0 | 11.0 | 0.00 | 0.00 | 0.00 | 36 | 1000.3 |
| 20260505002229 | 58 | 309 | 6.0 | 13.0 | 0.00 | 0.00 | 0.00 | 36 | 1000.2 |
| 20260505001236 | 59 | 325 | 5.0 | 13.0 | 0.00 | 0.00 | 0.00 | 35 | 999.9 |
| 20260505000241 | 60 | 10 | 6.0 | 16.0 | 0.00 | 0.00 | 0.00 | 33 | 999.9 |
| 20260504235229 | 61 | 5 | 10.0 | 17.0 | 0.00 | 0.00 | 0.00 | 28 | 999.5 |
| 20260504234250 | 61 | 355 | 9.0 | 19.0 | 0.00 | 0.00 | 0.00 | 28 | 999.3 |
| 20260504233233 | 62 | 24 | 9.0 | 19.0 | 0.00 | 0.00 | 0.00 | 27 | 999.3 |
| 20260504232234 | 62 | 16 | 10.0 | 18.0 | 0.00 | 0.00 | 0.00 | 27 | 999.1 |
| 20260504231237 | 62 | 5 | 9.0 | 16.0 | 0.00 | 0.00 | 0.00 | 27 | 998.6 |